Hourly Data Report for November 24, 2019

All times are specified in Local Standard Time (LST). Add 1 hour to adjust for Daylight Saving Time where and when it is observed.

HOPE A
BRITISH COLUMBIA
Current Station Operator: NAVCAN

49°22'06.000" N
121°29'53.000" W
39.00 m
1113542
71187
YHE

Download Data

Hourly Data (November 2019)
Hourly Data Report for November 24, 2019
TIME Temp Definition
°C
Dew Point Definition
°C
Rel Hum Definition
%
Wind Dir Definition
10's deg

Wind Spd Definition
km/h
Visibility Definition
km
Stn Press Definition
kPa
Hmdx Definition


Wind Chill Definition


Weather Definition


00:00 9.4 7.9 90 24 21 11.3 100.79     Rain
01:00 11.9 8.0 77 27 32 16.1 100.87     LegendNANA
02:00 12.5 6.2 65 29 45 16.1 100.96     Rain
03:00 12.0 5.4 64 26 35 16.1 101.11     LegendNANA
04:00 9.9 5.5 74 27 24 16.1 101.27     LegendNANA
05:00 9.2 2.6 63 30 24 16.1 101.35     LegendNANA
06:00 8.9 2.0 62 LegendMM 18 16.1 101.50     LegendNANA
07:00 8.6 1.9 63 LegendMM 11 16.1 101.59     LegendNANA
08:00 8.7 1.9 62 29 15 16.1 101.64     LegendNANA
09:00 8.6 2.5 66 30 18 16.1 101.74     LegendNANA
10:00 8.8 2.7 65 29 17 16.1 101.82     LegendNANA
11:00 9.1 2.9 65 29 17 16.1 101.83     LegendNANA
12:00 9.3 2.7 63 29 22 16.1 101.78     LegendNANA
13:00 8.8 4.0 72 29 17 16.1 101.75     Rain
14:00 8.3 4.1 75 24 13 16.1 101.72     Rain
15:00 7.4 5.0 85 23 9 9.7 101.73     Rain,Fog
16:00 7.6 4.3 79 24 9 16.1 101.68     Rain
17:00 7.2 3.7 78 19 18 16.1 101.66     Rain
18:00 7.0 3.3 77 20 8 16.1 101.60     LegendNANA
19:00 7.3 3.2 75 LegendMM 8 16.1 101.56     LegendNANA
20:00 7.8 3.3 73 LegendMM 4 16.1 101.52     LegendNANA
21:00 6.4 3.2 80 LegendMM 9 16.1 101.51     LegendNANA
22:00 6.6 3.4 80 LegendMM 4 16.1 101.51     LegendNANA
23:00 5.7 3.5 86   0 16.1 101.50     Rain

Notes on Data Quality.

Legend

  • E = Estimated
  • M = Missing
  • NA = Not Available*
  • [empty] = Indicates an unobserved value
Date modified: